{"data":{"norad_id":66627,"epoch":"2026-05-25T03:52:22.315296Z","epoch_age_seconds":64242,"freshness":"FRESH","line1":"1 66627U 25271L   26145.16136939  .00010203  00000+0  35632-3 0  9997","line2":"2 66627  53.1580 144.8160 0001324  88.6371 271.4782 15.30183721 29236","mean_motion":15.30183721,"eccentricity":0.0001324,"inclination_deg":53.158,"raan_deg":144.816,"arg_perigee_deg":88.6371,"mean_anomaly_deg":271.4782,"bstar":0.00035632,"rev_number":2923,"period_min":94.106346854804,"perigee_km":474.35628576043,"apogee_km":476.17106625944,"semimajor_km":6853.4006760099,"source":"CELESTRAK","updated_at":"2026-05-25T13:38:21.296088Z"}}